Location: São Paulo
(23.5507°S, 46.6334°W)
Time: 17:05:35
(UTC-03:00)

Tiros 1 - Pass Details

Date: 17 February 2026
Orbit: 618 x 649 km, 48.4° (Epoch: 8 March)

Event Time Altitude Azimuth Distance (km) Brightness Sun altitude
Rises 18:38:15 0° 329° (NNW) 2,893 10.8 0.7°
Reaches altitude 10° 18:40:36 10° 334° (NNW) 1,998 9.9 0.2°
Maximum altitude 18:45:03 50° 49° (NE) 813 7.4 -0.8°
Drops below altitude 10° 18:49:35 10° 124° (ESE) 2,037 9.3 -1.9°
Sets 18:51:59 0° 129° (SE) 2,957 10.2 -2.4°
